Wind_Speed
8 8 8 8 7 7 7 8 8 8 7 7 8 7 7 6 5 5 4 4 4 3 3 4 4 5 5 5 5 6 7 7 8 9 9 9 9 9 9 9 10 10 11
10 9 9 8 8 8 8 7 8 8 7 7 7 7 7 6 6 6 5 5 5 5 4 4 5 6 6 6 6 6 7 8 9 9 9 10 10 10 10 10 10 11 11
10 9 9 9 9 9 9 8 9 8 7 7 7 7 6 6 5 5 5 6 6 5 5 5 6 6 7 7 7 7 8 8 9 9 9 9 9 9 9 10 10 10 10
11 10 10 10 10 10 9 9 9 8 7 7 7 7 6 6 6 6 6 6 6 6 6 6 7 8 8 8 8 8 8 8 9 9 9 8 9 9 9 10 10 11 11
13 11 10 10 11 11 10 9 10 9 8 7 8 7 7 7 6 6 7 7 7 7 7 7 8 8 8 8 9 9 9 9 9 10 10 10 10 10 10 10 11 11 11
14 13 12 12 12 11 10 10 10 9 8 8 8 7 7 7 7 8 8 8 8 8 8 8 9 9 9 8 9 10 10 10 10 10 10 10 10 11 11 11 11 12 12
16 15 14 13 12 12 11 11 10 10 10 9 9 9 9 9 9 9 9 8 9 9 9 9 10 10 10 10 10 11 11 12 11 11 11 11 12 12 12 12 12 13 13
18 17 17 15 14 13 12 12 11 11 11 11 11 11 11 10 10 10 10 10 10 11 11 12 12 12 12 12 12 13 13 13 13 13 13 13 14 14 14 14 15 15 15
20 19 19 18 17 16 14 13 13 13 13 13 13 13 13 13 12 12 12 12 12 12 13 13 13 14 14 14 14 15 15 15 15 15 15 15 16 16 17 17 17 17 17
22 21 21 21 20 18 17 15 15 14 14 15 15 15 15 14 14 14 14 14 13 14 14 14 15 16 16 16 16 16 16 17 17 17 17 18 18 18 19 19 19 19 19
21 22 23 22 21 19 18 18 18 17 17 17 18 17 17 16 16 16 15 16 15 16 16 15 16 17 18 18 18 19 18 18 19 20 20 21 21 21 21 21 21 21 20
24 24 24 23 23 21 19 20 19 20 20 20 20 20 19 18 18 18 18 18 17 17 17 17 17 18 19 20 20 20 20 20 21 22 22 23 23 22 22 23 23 23 23
25 25 25 24 24 24 23 22 22 22 22 23 23 22 21 20 20 20 21 20 19 19 19 19 19 20 21 21 21 21 21 22 23 23 24 24 24 24 24 24 24 24 25
26 26 26 26 27 27 26 25 24 24 25 25 25 24 23 23 23 23 23 22 21 21 21 22 22 22 22 22 22 23 23 24 24 25 25 25 25 26 26 26 26 26 26
28 28 28 29 29 29 28 27 26 27 27 27 27 27 26 26 26 25 25 24 23 23 24 24 24 25 24 23 24 25 25 26 26 26 27 27 27 27 28 27 27 27 28
30 30 30 31 30 30 30 30 29 29 29 28 28 29 28 28 27 27 27 26 25 25 25 26 26 26 26 25 26 26 27 27 28 28 28 28 29 29 29 28 28 28 28
30 31 31 31 31 30 31 31 31 31 30 29 29 30 30 29 29 29 29 28 28 27 27 28 28 28 28 27 28 28 29 29 29 29 29 30 30 30 29 29 29 29 30
31 31 30 30 31 31 31 31 32 32 32 32 31 32 32 32 32 32 31 31 31 30 30 30 30 30 30 30 30 30 30 30 31 31 31 31 31 31 30 30 30 30 30
33 32 31 31 31 31 31 31 31 31 32 33 33 33 33 33 33 34 33 32 32 32 32 32 32 33 32 32 32 33 33 32 32 32 33 33 33 32 32 32 32 32 32
35 35 34 33 33 32 32 33 32 32 33 33 33 34 34 35 35 35 35 34 34 34 34 33 34 34 34 33 33 34 34 34 33 34 34 34 34 33 32 33 33 33 33
35 35 33 33 33 33 33 33 33 33 33 33 34 34 35 36 36 35 35 35 36 36 35 36 36 36 35 34 34 35 36 35 35 34 34 34 34 34 34 34 33 33 33
36 35 34 34 34 34 33 33 34 34 34 34 34 35 36 36 36 36 36 36 36 37 37 37 37 37 37 36 36 37 36 36 35 35 34 34 34 35 35 34 34 33 33
36 35 36 35 34 34 33 34 35 35 35 35 36 36 36 37 36 36 37 37 38 38 38 39 39 38 38 37 37 37 37 36 35 34 34 34 34 35 34 33 32 33 32
36 37 37 36 35 34 34 34 35 35 36 36 37 36 36 36 36 36 37 37 38 38 38 38 38 37 37 37 37 36 36 36 35 35 34 34 33 32 33 32 32 31 31
35 35 36 36 36 35 34 34 34 34 35 36 36 36 36 36 35 35 36 37 38 38 38 37 37 37 36 36 35 34 33 33 34 33 33 32 32 32 31 31 31 31 30
35 33 33 34 34 34 34 33 34 34 35 35 34 35 35 35 34 35 35 35 35 36 35 34 34 33 33 34 33 33 32 32 32 32 31 31 32 31 31 30 30 30 29
Wind_Direction
317 321 322 320 328 336 342 349 350 353 355 357 360 359 5 10 7 7 6 354 350 349 345 337 333 332 328 320 314 314 311 309 304 300 300 303 302 294 290 290 290 290 287
310 312 315 321 323 325 327 336 336 340 342 345 351 354 354 2 8 8 3 350 343 343 339 329 329 324 324 323 322 316 310 313 310 305 302 304 302 298 296 296 297 296 296
303 307 310 310 313 317 320 322 327 330 330 333 337 345 349 352 351 349 352 349 338 337 334 327 329 327 324 325 326 321 314 311 310 309 308 309 310 310 311 311 308 307 305
294 298 300 303 304 305 308 312 317 319 319 320 322 324 336 341 338 341 341 338 333 332 335 336 332 329 325 323 322 323 323 321 321 320 317 314 311 311 310 308 307 309 303
294 296 296 296 298 298 298 305 308 310 308 310 313 315 324 330 332 331 331 331 333 331 323 323 325 324 321 322 319 315 315 316 319 320 321 318 313 311 309 305 302 304 303
294 293 291 290 291 291 291 295 297 299 298 300 308 313 316 318 319 319 319 323 327 325 318 319 319 319 316 315 316 315 315 316 318 319 320 318 315 311 308 304 301 300 300
285 286 286 284 286 285 285 287 287 287 290 297 303 304 306 307 309 311 313 315 317 319 314 312 312 313 311 309 308 311 315 314 315 317 318 315 312 309 307 306 303 301 301
278 279 281 279 278 280 280 278 280 281 286 293 296 296 297 299 301 303 303 303 305 308 309 309 307 305 305 305 306 309 311 311 311 312 312 311 311 309 306 304 302 301 301
278 279 279 277 275 274 274 275 278 280 284 288 291 291 291 294 293 294 294 296 296 299 303 305 305 307 305 305 307 311 310 307 306 307 308 307 307 307 303 302 300 300 301
272 273 276 276 276 276 270 271 275 276 279 282 285 288 289 291 291 292 291 292 293 296 300 301 302 303 306 308 307 306 306 305 304 304 305 305 306 306 303 300 298 298 299
271 272 274 277 276 275 272 272 272 272 275 278 280 281 283 286 288 290 290 289 288 292 296 300 302 303 304 304 305 308 308 306 305 303 302 302 302 302 302 301 298 297 298
269 269 271 272 273 274 272 271 272 272 273 275 276 277 279 281 283 285 287 285 284 289 293 297 300 301 303 302 303 303 304 304 304 303 302 302 301 300 298 298 298 296 295
269 269 270 270 272 272 270 271 272 273 272 273 274 276 276 278 280 281 283 281 282 286 290 294 297 299 301 302 303 302 302 302 302 302 301 301 301 300 298 298 296 295 293
269 268 267 270 273 272 270 270 271 272 272 272 273 274 274 275 276 279 280 279 280 284 288 291 293 295 297 300 301 301 300 301 301 301 301 300 300 298 297 296 296 294 293
268 267 267 268 270 270 268 268 269 271 271 271 272 274 273 273 274 276 278 278 279 282 286 288 290 293 294 296 298 298 299 299 299 299 298 298 299 298 296 295 295 294 292
268 267 267 268 268 268 267 265 268 270 269 270 271 272 271 271 273 274 276 276 277 280 283 286 289 290 292 294 294 296 297 297 297 296 296 296 297 297 295 295 294 293 292
269 268 268 268 267 266 265 265 265 267 269 269 268 270 270 271 271 270 273 275 275 277 280 283 285 287 289 291 292 293 294 296 296 295 294 294 295 295 294 293 293 292 291
269 268 266 267 267 266 265 264 264 264 265 265 266 267 268 269 270 269 270 271 273 275 279 281 283 285 288 289 290 291 293 294 295 294 294 294 294 292 291 291 292 292 291
269 268 267 268 268 267 265 266 264 262 264 264 265 265 267 267 269 269 271 272 273 275 279 281 282 284 285 287 288 289 290 292 292 293 293 292 292 291 290 290 291 291 291
271 271 270 269 269 267 267 266 265 264 264 264 265 266 267 267 269 270 271 271 273 275 278 279 281 284 286 287 288 288 290 292 292 291 291 292 292 292 290 289 289 288 289
273 271 270 269 269 267 266 267 265 265 265 265 265 267 269 271 271 269 269 272 274 276 278 280 281 282 284 286 286 288 289 290 290 291 291 292 293 293 291 289 287 287 288
273 270 270 268 268 266 265 266 265 264 264 265 266 268 270 272 272 271 271 273 274 276 278 280 280 281 282 283 285 287 287 288 289 291 291 292 293 292 291 289 287 287 287
273 270 270 269 267 266 265 265 264 263 264 267 268 270 271 272 272 273 273 274 275 276 277 278 279 281 282 282 285 285 286 288 289 289 290 290 290 291 290 291 290 288 288
274 272 269 268 267 265 265 265 265 264 265 266 268 269 270 271 272 273 274 275 275 276 277 277 277 280 282 284 285 286 286 286 287 287 288 289 289 289 292 292 291 290 290
273 272 270 268 266 264 264 264 264 264 265 267 267 268 269 270 271 273 274 275 275 276 277 277 278 279 280 283 285 285 286 286 287 288 287 287 287 289 289 291 291 290 290
272 272 270 267 265 263 263 263 263 266 266 266 268 269 270 271 272 271 272 273 275 276 276 277 279 281 283 284 285 285 285 285 285 286 286 286 287 287 288 289 289 290 291
Height
5912 5911 5910 5910 5909 5909 5909 5908 5907 5907 5906 5905 5904 5903 5902 5902 5902 5901 5901 5901 5901 5901 5901 5902 5902 5902 5902 5901 5901 5901 5901 5901 5900 5900 5900 5899 5899 5899 5899 5899 5898 5898 5898
5911 5911 5910 5910 5909 5909 5908 5908 5907 5907 5906 5905 5905 5904 5903 5903 5903 5902 5902 5902 5901 5902 5901 5902 5902 5901 5901 5901 5901 5900 5900 5900 5899 5899 5898 5898 5898 5897 5897 5897 5896 5896 5895
5910 5910 5909 5909 5909 5908 5908 5907 5907 5906 5906 5906 5905 5904 5904 5903 5903 5903 5902 5902 5902 5902 5901 5901 5901 5901 5900 5900 5900 5899 5899 5898 5898 5897 5897 5896 5896 5895 5895 5894 5894 5893 5893
5909 5908 5908 5908 5908 5907 5907 5907 5906 5906 5906 5905 5905 5905 5904 5903 5903 5903 5902 5902 5902 5901 5901 5901 5901 5900 5900 5899 5899 5898 5898 5897 5896 5895 5895 5894 5894 5893 5893 5893 5892 5891 5890
5906 5906 5907 5907 5906 5906 5906 5906 5905 5905 5905 5905 5905 5904 5904 5903 5903 5903 5902 5902 5901 5901 5901 5900 5900 5900 5899 5898 5898 5897 5896 5896 5895 5894 5893 5892 5892 5891 5891 5890 5889 5889 5888
5905 5905 5905 5904 5904 5904 5904 5904 5904 5904 5904 5904 5904 5903 5903 5903 5903 5902 5902 5901 5901 5900 5900 5900 5899 5898 5898 5897 5896 5896 5895 5894 5893 5892 5891 5890 5890 5889 5888 5888 5887 5886 5886
5903 5902 5902 5902 5902 5902 5902 5903 5903 5903 5902 5902 5902 5902 5902 5902 5902 5901 5901 5900 5900 5899 5899 5898 5898 5897 5896 5895 5895 5894 5893 5892 5890 5890 5889 5888 5887 5886 5886 5885 5884 5883 5883
5900 5900 5900 5899 5900 5900 5900 5900 5901 5901 5901 5900 5900 5900 5900 5900 5900 5899 5899 5899 5899 5898 5898 5897 5896 5895 5894 5893 5893 5892 5891 5890 5889 5888 5887 5886 5885 5884 5882 5881 5881 5880 5879
5897 5896 5897 5896 5897 5897 5897 5897 5898 5898 5898 5898 5898 5898 5898 5898 5898 5897 5897 5897 5897 5896 5896 5895 5894 5893 5892 5891 5890 5889 5888 5887 5886 5885 5884 5883 5881 5880 5879 5878 5876 5876 5875
5894 5893 5892 5892 5893 5892 5892 5892 5894 5895 5895 5895 5895 5895 5895 5895 5895 5894 5894 5894 5894 5893 5893 5892 5891 5890 5889 5888 5887 5886 5885 5884 5883 5882 5880 5879 5878 5876 5875 5874 5872 5871 5870
5889 5888 5888 5887 5888 5888 5889 5890 5890 5891 5891 5892 5891 5891 5891 5891 5891 5891 5891 5891 5891 5890 5889 5889 5888 5887 5886 5885 5884 5882 5881 5880 5879 5877 5876 5875 5873 5872 5870 5869 5867 5866 5865
5884 5883 5882 5882 5883 5883 5883 5885 5885 5886 5886 5887 5887 5887 5887 5887 5887 5887 5887 5887 5886 5886 5886 5885 5885 5884 5883 5881 5880 5879 5877 5876 5874 5873 5871 5870 5868 5867 5865 5863 5862 5861 5859
5879 5878 5877 5876 5877 5878 5879 5879 5880 5880 5881 5881 5881 5882 5882 5882 5882 5882 5882 5882 5882 5882 5881 5881 5880 5879 5878 5877 5875 5874 5872 5871 5869 5867 5866 5864 5863 5861 5859 5858 5856 5855 5853
5872 5872 5872 5872 5872 5872 5873 5873 5874 5874 5875 5875 5875 5876 5877 5877 5877 5877 5877 5876 5877 5877 5876 5876 5875 5874 5873 5872 5870 5868 5867 5865 5864 5862 5860 5858 5857 5855 5853 5851 5850 5848 5846
5865 5866 5866 5866 5865 5865 5865 5865 5865 5867 5868 5869 5869 5870 5870 5870 5870 5871 5871 5871 5871 5871 5871 5870 5869 5868 5867 5866 5864 5863 5861 5859 5858 5856 5854 5852 5850 5848 5846 5844 5842 5840 5839
5858 5858 5858 5858 5858 5858 5857 5858 5858 5860 5859 5860 5862 5862 5863 5863 5863 5864 5864 5865 5865 5865 5865 5864 5863 5862 5861 5859 5858 5856 5855 5853 5851 5850 5847 5845 5843 5841 5838 5836 5835 5833 5831
5850 5849 5849 5849 5849 5850 5850 5851 5852 5852 5852 5852 5853 5854 5855 5856 5856 5856 5857 5857 5857 5857 5857 5856 5856 5855 5854 5852 5851 5849 5848 5846 5844 5842 5840 5838 5836 5833 5831 5829 5827 5825 5823
5840 5840 5839 5840 5841 5841 5842 5842 5843 5844 5844 5845 5846 5846 5847 5847 5848 5848 5849 5849 5849 5848 5848 5849 5848 5847 5846 5844 5843 5841 5840 5838 5836 5834 5832 5830 5827 5825 5823 5821 5819 5817 5815
5831 5831 5831 5832 5832 5833 5833 5834 5833 5834 5836 5836 5837 5838 5838 5839 5839 5840 5840 5841 5841 5840 5840 5840 5839 5839 5837 5835 5834 5833 5831 5829 5828 5825 5823 5821 5818 5816 5814 5813 5811 5809 5807
5823 5823 5823 5823 5824 5824 5824 5825 5825 5826 5827 5828 5828 5829 5829 5829 5830 5831 5831 5831 5831 5830 5831 5830 5830 5829 5828 5827 5825 5824 5822 5820 5819 5817 5814 5812 5809 5807 5805 5803 5802 5800 5798
5813 5813 5813 5813 5814 5815 5816 5816 5817 5818 5819 5819 5819 5820 5820 5821 5821 5821 5821 5821 5822 5822 5821 5821 5821 5820 5819 5818 5816 5814 5813 5811 5809 5807 5805 5803 5800 5798 5796 5794 5792 5790 5788
5802 5802 5803 5804 5805 5806 5807 5807 5808 5809 5810 5810 5811 5811 5811 5811 5812 5812 5812 5812 5812 5812 5812 5811 5810 5809 5808 5808 5806 5805 5803 5801 5799 5797 5796 5793 5791 5788 5786 5784 5781 5780 5778
5792 5791 5792 5793 5795 5796 5797 5798 5799 5799 5801 5801 5802 5802 5802 5802 5802 5802 5802 5802 5802 5802 5802 5801 5800 5799 5798 5797 5796 5795 5793 5791 5790 5788 5786 5784 5782 5778 5775 5774 5772 5770 5769
5782 5782 5782 5783 5785 5786 5787 5789 5789 5790 5791 5792 5792 5792 5793 5793 5793 5792 5792 5792 5792 5792 5791 5790 5789 5789 5788 5787 5786 5784 5783 5781 5780 5778 5776 5774 5772 5770 5768 5765 5763 5761 5759
5772 5772 5772 5773 5775 5776 5778 5779 5780 5781 5781 5782 5783 5783 5783 5783 5783 5783 5783 5782 5782 5781 5781 5780 5779 5779 5778 5777 5776 5774 5773 5771 5770 5768 5766 5765 5763 5761 5759 5757 5754 5752 5750
5763 5762 5763 5763 5765 5766 5768 5770 5771 5771 5772 5773 5773 5773 5774 5774 5773 5773 5773 5772 5772 5771 5771 5770 5769 5768 5768 5767 5766 5765 5763 5762 5760 5758 5756 5755 5753 5751 5750 5748 5746 5744 5742